Location: Alexandria
(38.8050°N, 77.0470°W)
Time: 04:30:49
(UTC-05:00)

N. Korean satellite - Pass Details

Date: 19 November 2017
Orbit: 460 x 514 km, 97.2° (Epoch: 22 November)

Event Time Altitude Azimuth Distance (km) Brightness Sun altitude
Rises 06:13:18 0° 25° (NNE) 2,614 10.4 -8.4°
Reaches altitude 10° 06:15:40 10° 39° (NE) 1,731 9.6 -8.0°
Maximum altitude 06:18:46 25° 96° (E) 1,075 9.4 -7.4°
Drops below altitude 10° 06:21:53 10° 152° (SSE) 1,731 10.1 -6.9°
Sets 06:24:15 0° 166° (SSE) 2,614 10.8 -6.4°
